Temp
14 14 14 13 12 13 13 12 12 10 11 13 14 14 14 15 15 16 16 17 17 18 19 19 20 21 21 16 19 21 23 24 26 27 24 22 20 18 17 19 19 18 18 17 18 17 16
14 14 14 13 12 12 13 12 12 11 11 13 14 14 14 15 15 16 16 17 17 18 19 19 20 21 20 17 21 21 23 24 25 26 24 23 21 19 18 18 17 18 18 17 16 16 17
14 14 14 13 12 12 13 13 12 11 11 13 14 14 14 15 15 16 16 17 18 19 19 20 20 21 18 19 21 22 23 23 24 25 22 22 23 20 19 17 18 18 17 16 16 17 16
14 14 14 13 12 12 12 12 12 13 11 13 14 14 14 15 15 16 16 18 19 19 20 20 20 21 19 21 21 22 23 24 24 25 25 24 24 18 18 18 17 17 15 15 18 17 16
14 14 13 13 12 12 12 12 12 12 13 13 14 14 15 14 16 16 16 18 19 20 20 20 20 20 19 21 21 22 22 22 23 25 25 25 22 16 18 17 15 14 15 15 17 16 17
13 13 13 13 12 12 12 12 12 11 13 14 14 14 14 14 16 16 17 18 20 21 21 21 20 18 19 19 21 21 22 22 21 21 20 18 14 15 15 15 16 17 15 16 16 17 14
13 14 13 13 12 12 12 11 12 11 11 14 14 14 14 14 15 16 18 19 18 16 19 17 18 18 19 21 21 20 21 22 20 17 17 15 15 16 16 15 18 16 15 15 15 15 15
13 13 13 13 12 12 11 11 12 11 11 13 13 15 14 13 16 16 17 16 16 18 17 19 19 19 20 20 18 18 21 19 17 16 17 14 15 16 17 16 16 16 15 15 16 16 15
13 13 13 13 13 12 11 11 12 11 11 13 13 15 13 14 16 16 16 16 17 18 15 19 18 19 19 19 17 17 19 17 16 15 14 14 17 16 16 15 16 15 15 16 15 16 14
13 13 13 13 12 12 11 12 12 11 12 13 13 14 13 14 16 16 16 17 18 18 11 17 18 19 20 18 18 19 19 18 16 15 14 13 15 16 15 15 15 16 16 17 15 14 12
13 13 13 13 12 12 11 13 12 11 13 13 12 14 14 15 15 15 16 17 18 18 12 17 18 20 18 18 18 18 18 15 15 15 15 14 15 15 15 16 16 16 17 17 17 15 14
13 12 13 13 12 11 11 12 11 11 13 12 12 13 14 14 15 16 17 18 18 11 12 17 18 18 17 17 17 18 17 16 15 13 13 14 15 14 15 16 16 16 15 13 12 12 12
12 12 12 12 12 12 12 12 11 11 13 12 11 13 13 14 14 16 17 16 11 10 17 16 17 17 17 17 17 17 16 16 13 12 13 13 13 13 15 16 15 14 12 9 12 10 11
12 12 13 12 11 12 13 10 10 10 12 12 11 14 13 13 14 16 16 11 10 13 15 17 17 16 17 17 16 16 15 14 15 12 9 11 13 14 14 14 14 14 13 9 13 11 14
11 12 12 11 11 12 13 11 9 11 11 11 12 13 13 13 14 15 10 9 10 13 16 16 17 17 16 17 16 16 15 13 15 14 13 11 12 14 14 14 14 14 10 12 10 10 11
11 11 12 11 11 12 13 11 9 12 11 12 12 12 12 12 14 15 7 11 14 15 17 17 16 16 15 16 16 15 14 15 15 15 12 12 12 14 14 14 13 14 12 10 5 9 10
11 10 11 11 11 11 12 9 11 12 11 12 13 9 12 13 13 7 7 10 14 16 18 17 17 16 16 15 15 15 14 15 15 14 13 11 9 12 14 13 11 11 9 8 8 8 9
11 10 10 12 11 11 10 10 10 11 11 13 11 7 10 12 7 3 8 13 16 18 18 18 18 17 16 16 15 15 14 15 14 14 14 12 8 9 12 12 12 12 11 9 5 7 7
10 10 10 11 11 10 10 9 10 11 12 13 8 7 9 10 6 6 11 14 16 18 18 18 18 18 17 15 14 14 14 12 14 13 12 11 7 6 11 10 9 11 6 2 2 6 9
11 9 10 9 10 9 9 9 10 12 13 13 7 6 6 5 7 10 12 14 16 17 18 18 17 16 15 13 12 12 13 12 12 12 12 11 8 8 9 9 6 4 4 0 3 4 7
10 9 9 10 9 8 9 10 11 11 12 13 6 5 7 7 7 10 12 13 15 16 17 17 17 16 14 13 12 12 11 12 12 12 11 10 7 6 6 10 10 9 7 5 4 6 9
9 8 8 9 9 8 8 8 10 11 13 13 4 5 7 8 11 11 11 12 14 16 16 17 15 15 15 12 13 11 11 11 12 12 11 8 6 10 9 10 10 11 10 7 7 9 7
8 8 9 8 8 7 7 9 9 10 12 9 9 9 9 8 10 9 10 13 14 15 15 15 13 13 14 14 12 11 11 9 10 10 9 9 7 6 8 10 10 8 9 8 8 9 9
8 8 7 7 7 7 8 9 8 9 12 12 11 10 7 7 10 10 12 13 14 15 14 14 12 13 12 12 11 10 9 9 10 9 9 7 7 4 4 9 6 11 12 11 10 10 9
8 7 7 6 7 7 7 6 7 10 11 12 12 10 6 6 10 11 12 13 11 10 11 12 12 11 11 10 7 7 5 8 9 11 10 9 6 2 4 6 10 13 12 10 11 10 9
7 7 6 6 6 5 5 6 7 9 11 11 11 12 8 7 8 11 12 11 9 8 9 10 10 10 8 4 5 5 6 8 8 10 9 8 7 6 3 5 6 10 12 12 11 9 9
7 7 6 5 5 4 5 5 6 8 10 11 10 12 10 4 5 7 9 10 8 8 6 9 10 10 7 2 4 5 7 10 9 9 7 7 5 4 2 4 7 10 11 13 10 8 7
7 6 6 5 5 4 5 5 7 9 10 9 8 12 10 3 5 6 7 9 8 8 7 7 8 7 4 5 6 4 6 7 8 9 9 8 6 4 2 1 7 10 12 11 7 6 6
6 6 5 5 5 4 5 6 8 10 9 9 9 10 10 6 5 7 8 8 8 10 6 4 8 7 5 5 4 4 6 5 7 8 9 9 8 7 6 6 8 6 8 6 6 5 5
Height
818 820 823 829 830 827 829 831 832 835 835 835 834 834 837 838 838 838 835 835 836 835 834 833 828 824 823 827 830 824 819 815 809 805 807 811 816 829 845 854 856 864 877 881 882 887 890
812 815 818 825 828 827 825 829 831 832 836 835 835 835 837 838 838 838 836 837 836 836 835 834 830 827 826 838 830 827 823 818 813 813 817 815 826 833 847 857 864 876 880 888 892 893 896
807 811 812 819 824 826 825 826 829 831 835 837 836 836 835 838 839 838 836 837 837 837 836 836 833 831 832 837 831 829 825 823 820 818 821 826 826 833 850 868 872 876 888 896 896 894 902
800 806 809 814 820 823 824 824 826 830 832 837 837 836 835 837 838 838 837 838 838 839 837 837 835 833 839 835 832 831 829 826 825 822 823 830 832 840 855 867 879 888 895 909 900 898 902
794 799 805 810 815 819 822 823 824 829 829 835 836 837 836 837 837 838 838 838 839 840 839 838 838 836 843 837 835 834 833 832 831 828 829 832 837 856 866 878 895 900 911 910 905 901 899
788 793 800 805 811 815 819 820 821 826 828 833 835 838 837 837 837 838 838 839 840 841 840 840 840 844 842 844 839 837 836 834 835 835 838 845 861 876 883 892 907 902 909 907 909 904 908
781 786 793 800 806 812 818 817 818 823 826 831 835 838 838 838 837 838 840 839 845 847 844 851 849 846 844 844 841 839 838 837 839 849 864 866 884 895 890 890 884 896 904 911 909 908 914
772 779 787 794 802 807 813 814 813 821 825 829 834 837 840 840 838 839 839 842 847 849 855 849 847 846 845 845 848 843 842 848 855 872 868 884 896 890 886 884 890 896 910 914 911 909 914
763 771 780 788 796 802 808 812 812 817 824 829 832 835 841 840 839 840 841 845 846 847 859 854 851 849 849 849 857 854 850 857 868 879 883 893 893 886 886 897 896 909 910 909 914 914 920
755 764 772 782 789 797 804 807 809 815 822 828 831 836 839 841 844 841 843 845 847 848 880 865 858 852 851 851 861 854 854 861 872 886 888 898 893 890 896 903 904 908 904 902 913 923 938
747 756 765 775 785 792 799 802 807 812 820 826 831 834 839 841 840 842 845 845 847 849 905 862 858 853 852 858 861 860 859 863 881 886 888 902 899 899 902 901 900 907 903 905 908 921 927
741 748 757 767 778 788 795 799 805 812 818 826 830 832 840 840 839 843 844 846 849 888 900 863 858 859 860 860 863 862 864 866 880 892 895 901 896 898 900 899 898 901 907 918 926 931 945
731 740 749 760 771 782 791 795 803 809 817 823 829 831 840 838 840 843 845 847 884 902 862 865 864 861 864 867 868 868 873 879 895 910 908 908 908 904 899 902 902 906 922 961 945 961 946
722 732 743 754 765 776 786 793 800 808 814 821 825 831 836 839 841 844 844 865 898 870 866 854 859 864 869 866 871 872 879 888 886 897 923 919 922 909 904 906 909 911 918 954 941 949 931
715 724 735 745 760 770 779 791 799 804 812 818 824 829 837 841 843 846 854 890 877 862 852 856 861 868 870 866 872 874 880 888 884 886 905 919 916 909 908 905 909 913 932 923 938 947 941
708 719 728 739 753 765 776 786 794 802 811 816 821 831 842 843 845 847 870 868 857 846 844 848 864 866 876 873 874 878 883 879 882 882 891 904 919 912 910 907 910 911 920 941 970 962 960
701 711 720 732 746 760 771 780 790 800 808 815 822 839 842 842 846 857 880 865 850 841 840 848 854 864 869 871 876 877 886 881 880 885 888 904 921 922 914 916 918 923 932 940 947 953 954
692 703 712 725 740 753 764 773 786 797 805 816 822 848 842 844 863 873 868 850 841 838 839 840 842 851 865 868 874 878 882 882 879 881 891 900 926 937 921 919 917 915 919 929 967 959 957
685 696 708 719 734 745 759 770 783 792 801 806 826 843 843 843 866 869 853 845 840 838 839 841 843 844 855 867 879 880 882 887 881 883 894 899 930 959 930 929 926 921 940 959 964 950 940
677 690 703 715 724 738 753 767 778 786 795 803 822 845 849 846 850 847 847 845 842 835 837 836 843 847 860 872 876 884 885 889 885 886 890 896 920 928 932 929 937 950 950 964 956 969 948
671 685 698 707 720 735 750 763 774 784 791 802 819 834 830 842 851 843 843 843 841 842 836 835 844 848 859 876 880 885 889 890 889 888 895 901 925 933 933 919 920 923 931 943 951 940 932
666 682 689 703 716 733 748 759 769 780 788 798 819 826 827 827 832 841 841 842 841 839 839 840 849 851 855 868 866 884 885 887 884 891 897 907 930 913 923 916 919 916 919 930 930 925 930
663 676 688 701 712 730 745 757 767 776 785 793 804 808 812 829 831 843 841 836 837 835 841 839 846 854 857 859 861 869 873 880 882 891 903 908 922 932 931 919 917 930 911 917 918 916 915
660 672 686 697 709 726 742 754 764 776 784 791 797 801 816 834 828 831 831 832 832 835 842 846 848 853 865 862 864 875 882 885 889 894 896 912 922 941 950 926 954 898 892 894 904 906 911
655 669 681 696 707 723 738 750 763 774 785 791 793 796 810 829 825 828 828 833 839 843 847 849 851 852 858 864 888 903 914 900 899 895 898 901 922 952 953 941 913 890 892 897 897 906 906
649 669 682 695 708 721 736 750 762 774 784 789 791 794 800 818 829 824 827 831 845 851 856 856 857 858 863 885 897 921 921 904 908 901 904 908 913 926 949 950 944 901 889 887 892 912 907
654 668 681 695 706 721 737 751 761 775 785 789 793 794 800 821 828 826 829 828 834 845 861 858 860 863 866 896 908 914 908 893 901 904 915 917 927 939 958 949 917 896 890 887 906 913 908
655 670 682 695 707 720 737 750 763 775 784 789 792 794 798 820 827 826 826 828 833 837 851 859 865 869 883 893 897 908 904 901 896 894 900 907 922 939 949 966 927 893 890 895 904 908 910
658 671 683 696 708 721 737 751 765 776 786 789 791 797 800 807 826 827 827 827 827 829 841 857 855 861 869 885 894 897 900 904 896 903 892 901 901 908 914 911 899 901 898 900 902 906 913
Wind_Speed
35 31 27 25 22 16 11 9 9 10 10 8 7 3 3 2 3 5 4 5 6 6 8 13 17 12 6 7 3 20 21 24 24 18 22 4 9 6 11 16 25 22 11 8 15 14 14
37 36 30 28 24 19 13 11 10 10 11 9 8 4 3 2 2 5 3 3 3 4 8 11 15 10 4 7 14 18 17 22 28 26 26 23 15 15 11 5 7 8 18 7 8 12 9
41 39 33 30 25 22 16 12 11 11 11 11 9 4 3 2 2 4 1 2 2 3 7 10 12 5 9 1 13 14 12 19 21 29 18 12 7 9 6 16 9 19 23 6 6 5 10
44 41 36 33 28 24 19 15 12 11 11 12 10 5 5 3 3 3 1 2 1 4 5 11 5 5 2 10 11 11 12 18 21 23 23 19 24 11 6 12 6 7 5 6 5 1 5
46 43 40 34 29 25 22 17 14 12 12 12 9 6 6 4 4 3 1 3 2 3 6 9 3 4 3 9 7 11 13 9 11 27 26 22 13 8 7 9 5 7 4 7 2 2 2
49 46 42 36 32 28 25 20 15 14 14 13 10 7 7 5 3 3 2 3 7 4 4 4 2 5 6 5 6 11 7 11 9 9 10 11 7 6 4 5 4 4 7 4 4 1 6
53 50 45 39 35 31 28 23 18 15 15 15 11 9 7 5 4 4 3 4 5 6 10 1 4 3 2 9 10 15 8 7 8 9 6 6 10 3 7 3 3 7 7 7 2 4 7
55 52 49 43 38 33 31 25 19 18 17 16 12 11 8 5 7 6 6 5 3 4 4 7 3 3 7 3 7 16 9 6 7 5 4 8 6 4 2 6 11 8 12 4 1 1 6
56 57 52 46 40 36 33 27 21 20 19 18 13 11 10 6 8 6 7 4 5 7 5 3 4 3 2 7 3 8 7 3 7 6 7 7 1 5 5 9 11 5 7 5 7 4 8
59 55 55 49 44 38 35 28 23 22 21 17 14 13 10 9 9 5 4 5 4 4 5 3 3 2 3 4 5 5 7 4 6 6 5 7 5 4 8 7 3 4 2 3 9 5 5
61 57 58 52 45 41 37 29 25 25 23 20 17 14 12 12 9 5 4 4 1 2 3 2 2 1 3 6 3 7 11 8 5 3 4 3 2 6 6 1 1 4 2 4 3 3 4
63 62 58 54 49 43 38 31 27 28 26 23 19 17 16 8 11 6 5 3 1 6 5 3 2 3 4 4 3 2 5 9 3 9 8 3 1 4 2 0 3 5 5 7 5 3 2
67 64 60 56 53 45 37 33 30 30 28 24 20 19 17 8 6 8 3 3 5 4 2 4 4 3 2 3 3 3 3 4 4 6 3 6 4 5 4 4 5 5 6 3 3 3 5
67 66 60 57 56 47 39 36 33 32 30 26 21 19 12 6 8 10 4 6 4 4 5 4 4 6 3 4 2 2 4 3 4 6 3 5 3 4 4 3 4 2 4 5 6 3 3
69 65 66 64 56 48 41 38 34 34 31 27 24 21 7 6 8 9 6 3 8 6 5 7 4 4 2 1 5 3 2 6 3 3 5 5 2 2 3 2 2 3 2 3 6 3 2
67 64 67 64 58 52 44 40 35 35 33 30 19 14 4 7 7 6 4 5 4 4 4 6 5 4 5 5 3 3 6 2 4 3 4 5 5 1 2 0 5 1 4 4 3 2 3
67 66 68 65 59 53 51 44 39 39 36 31 19 4 5 8 6 5 4 6 4 6 3 6 6 4 4 5 3 2 6 0 2 4 6 4 4 3 2 1 6 2 1 5 4 3 4
69 70 71 64 58 56 53 48 47 44 40 28 10 3 7 13 3 1 3 5 4 3 3 3 4 4 6 5 3 2 4 3 4 5 5 1 5 3 1 3 3 2 3 4 4 4 1
70 68 66 67 65 60 53 50 52 50 45 26 6 3 3 1 4 2 3 4 3 3 4 4 3 3 2 5 5 2 4 5 4 4 7 6 1 3 5 5 4 1 2 3 4 3 5
70 70 68 65 68 62 57 56 56 55 39 24 4 3 3 4 1 6 5 5 3 1 2 4 5 5 5 4 6 4 3 3 2 4 7 6 3 5 6 6 4 2 4 2 4 3 3
73 69 67 68 69 63 61 62 56 52 39 28 2 4 5 7 4 4 6 7 5 4 1 2 4 5 7 4 3 4 3 2 5 2 4 4 3 3 2 2 1 3 4 7 6 5 5
70 68 69 67 69 65 60 62 61 56 46 15 5 4 1 3 12 6 6 7 8 3 4 2 7 6 5 7 8 9 8 4 5 2 3 2 2 2 2 2 4 3 5 8 4 3 7
70 68 68 68 71 68 64 62 61 56 47 8 5 4 5 2 11 7 6 6 8 7 5 4 10 5 5 3 5 6 3 6 7 7 3 3 5 3 2 2 1 7 10 10 5 4 6
68 72 71 71 72 70 65 65 59 57 43 17 6 7 4 2 11 12 12 8 8 4 7 3 6 6 1 17 10 8 11 10 9 6 4 5 4 2 2 2 2 6 2 8 6 2 7
68 69 70 68 70 74 70 65 61 61 37 15 12 6 3 3 6 11 9 8 7 5 4 4 4 1 17 6 5 5 5 6 5 3 3 4 5 2 4 3 5 3 4 7 7 2 2
69 67 66 66 70 71 64 63 63 59 33 13 12 10 5 7 6 3 8 5 5 4 3 3 5 10 6 3 4 4 4 4 0 3 5 5 5 4 2 4 6 4 4 5 5 2 4
65 65 66 67 69 64 60 52 57 50 29 16 8 11 8 4 2 3 5 8 5 5 5 4 4 2 4 2 3 3 2 4 5 7 4 2 2 4 2 1 7 6 4 1 4 4 5
64 62 66 65 68 67 57 51 56 52 26 10 11 10 6 3 2 1 1 4 4 3 5 6 4 3 3 4 3 3 3 5 4 4 5 5 5 3 3 3 7 2 1 5 4 4 6
63 64 63 62 62 64 60 54 53 54 24 9 10 14 15 11 4 5 8 10 1 3 7 3 4 4 5 4 1 3 2 2 5 3 3 3 6 5 7 5 2 3 1 4 3 6 4
Wind_Direction
223 225 227 230 223 213 225 246 262 246 240 231 221 203 258 303 322 315 0 14 13 26 10 3 8 356 353 37 6 347 8 27 57 66 50 49 55 87 88 92 79 86 87 66 87 88 85
219 223 223 225 224 216 214 233 251 244 243 230 226 210 239 278 313 310 8 30 34 45 358 6 13 9 40 63 339 353 10 41 64 68 58 64 103 105 84 94 75 129 103 86 82 89 85
219 221 222 222 221 218 217 221 239 241 236 234 226 225 229 257 284 292 334 46 78 24 350 356 2 9 55 12 350 357 17 39 64 76 62 81 158 75 107 85 98 121 107 67 7 77 121
217 219 220 217 218 218 219 216 227 239 232 227 233 212 231 224 244 258 288 117 95 335 344 346 13 23 69 353 352 16 32 62 60 79 73 88 86 100 73 116 79 99 52 101 242 52 358
215 216 219 215 214 215 217 218 223 232 221 229 229 218 231 223 215 215 259 124 29 342 342 353 352 45 338 353 14 14 13 13 44 83 81 87 77 73 63 102 60 27 128 109 177 282 133
215 215 217 214 214 212 214 215 219 222 215 213 211 235 228 232 189 188 185 90 75 43 9 10 27 47 1 325 352 351 19 43 33 30 43 43 48 69 40 64 169 142 108 68 120 9 70
215 215 215 213 210 211 214 209 212 219 213 206 197 227 226 245 175 138 101 109 40 359 38 0 293 82 7 342 51 18 15 52 40 45 59 28 69 85 279 198 95 109 100 114 43 106 72
216 217 213 212 208 209 212 212 206 211 209 198 184 215 223 240 163 129 69 70 110 154 64 13 13 38 52 19 28 356 24 68 58 62 6 43 61 315 333 97 110 103 114 97 51 302 93
214 213 213 210 205 208 209 212 203 205 202 194 184 200 221 191 153 115 80 88 67 145 93 336 296 39 355 60 41 345 21 84 75 62 54 95 7 38 80 42 87 36 125 183 147 104 51
208 210 210 208 203 204 207 206 200 200 193 187 180 190 201 166 147 119 87 101 65 158 73 261 308 313 45 120 49 8 33 92 43 125 86 79 333 78 63 68 33 91 345 95 123 103 169
208 206 210 206 202 202 203 202 197 195 185 180 177 181 182 164 146 130 126 109 151 79 42 234 157 219 70 95 163 2 26 35 72 43 83 236 36 72 77 135 48 164 93 80 106 93 96
208 205 211 201 201 199 198 199 195 193 179 177 175 172 173 150 146 125 122 128 112 50 259 181 115 182 83 34 32 41 61 60 145 58 42 92 48 75 146 261 78 141 83 45 50 68 343
200 201 204 199 198 196 198 195 193 187 174 174 172 165 168 137 137 156 137 68 55 134 269 183 176 148 114 132 83 67 66 65 123 94 13 2 355 330 54 76 27 73 70 23 13 5 222
202 200 204 199 197 195 195 194 189 181 170 170 163 160 147 154 157 162 117 58 115 210 201 127 125 120 160 148 49 103 96 105 90 91 110 139 317 354 347 73 158 81 136 147 195 199 267
193 196 200 197 195 193 192 191 190 172 167 162 154 143 138 152 162 165 78 88 206 197 184 129 84 122 156 228 129 117 79 154 160 127 128 130 27 331 36 90 95 181 73 161 107 12 37
196 194 198 197 193 190 188 187 180 169 167 159 134 117 142 158 167 132 83 223 235 205 142 123 141 161 168 185 103 112 176 207 140 98 124 170 95 267 279 79 45 118 139 69 1 120 276
188 189 194 197 191 187 184 177 174 170 164 154 118 89 169 162 147 56 169 218 236 232 166 142 157 137 158 149 116 133 183 88 128 85 93 116 100 283 31 253 170 78 63 55 113 124 166
189 190 190 195 187 183 178 171 174 167 156 155 107 124 171 163 83 102 163 194 219 196 162 158 121 115 152 140 113 110 164 205 146 134 117 99 122 119 290 320 355 87 156 141 120 248 240
186 188 191 193 184 181 178 176 171 165 160 142 119 118 83 106 142 219 249 241 233 188 161 156 116 116 150 130 107 105 95 350 98 98 151 174 64 71 352 345 346 204 78 103 113 79 196
190 185 187 180 184 178 173 176 171 164 160 142 108 113 355 43 29 150 159 190 203 230 154 113 120 93 95 62 34 142 117 10 44 87 92 89 110 149 190 212 142 159 187 196 117 120 183
187 180 179 185 182 176 176 170 169 164 159 154 73 195 180 184 214 185 153 181 164 157 134 105 69 139 141 119 83 121 104 125 41 48 68 97 121 114 210 257 185 153 167 174 181 192 163
176 177 177 182 181 175 176 173 167 165 166 160 128 139 110 207 160 163 149 192 167 168 146 158 131 134 122 152 170 189 141 175 179 79 90 23 165 141 83 242 262 275 218 187 227 234 270
176 176 181 175 178 172 176 174 169 168 168 130 148 120 115 161 158 139 197 170 189 139 15 143 139 105 96 146 105 97 97 113 141 132 122 102 128 106 236 7 289 304 218 183 186 199 160
176 175 171 174 176 172 174 169 171 175 176 167 156 127 102 173 164 185 180 198 166 175 133 85 96 99 102 122 94 55 50 72 76 54 110 119 98 86 155 42 2 248 244 188 144 202 197
168 170 172 170 172 171 171 171 173 181 173 165 154 135 120 114 171 174 171 161 99 63 75 93 25 261 157 60 73 50 354 27 7 70 93 114 119 77 131 190 293 286 171 146 167 246 177
169 168 167 166 169 171 170 173 181 182 178 169 154 127 105 115 214 96 160 160 145 115 48 68 31 82 69 78 78 132 181 173 145 78 56 58 74 111 114 140 216 244 286 117 103 259 161
167 167 167 166 165 165 166 172 181 173 175 167 142 134 102 109 289 155 171 168 125 104 109 115 129 76 54 80 90 142 199 172 155 166 171 104 34 148 119 201 285 247 273 150 115 234 136
167 166 166 166 167 166 167 169 173 173 173 161 119 131 107 107 24 245 6 140 99 119 135 180 87 339 49 71 121 204 136 209 120 157 169 160 151 192 91 91 273 9 24 180 158 67 124
164 163 163 162 165 170 170 173 173 174 179 155 102 119 106 85 133 104 75 51 247 185 127 11 150 146 170 93 158 115 123 118 150 205 136 195 185 177 175 211 312 337 152 89 112 125 139